1 71922C 26067AC 26089.50133053 -.00014632 00000+0 -74472-3 0 04 2 71922 97.4497 49.1617 0004341 5.9603 355.7042 15.16896692 16 /EX


Keps mailing list -- keps@amsat.org View archives of this mailing list at https://mailman.amsat.org/hyperkitty/list/keps@amsat.org To unsubscribe send an email to keps-leave@amsat.org Manage all of your AMSAT-NA mailing list preferences at https://mailman.amsat.org